Khrustalnyi / Krasnyi Luch

Ukraine / Luhansk Region     48˚08′13″N   38˚55′09″E
temp.,
°C
wind,
m/s
gust,
m/s
humid.,
%
clouds,
%
prec.,
mm/h
press.,
hPa
HPBL,
m
1 december, tue
tue123:00ese6147657 0.0 1027572
02:00−1˚ese7158457 0.0 1027577
05:00−1˚ese7138666 0.0 1027544
08:00−2˚ese8148450 0.0 1028499
11:00ese8137763 0.0 1028678
14:00ese8128081 0.0 1027837
17:00e81383100 0.0 1028691
20:00−1˚ese8128699 0.0 1028720
2 december, wed
wed223:00−1˚e71284100 0.0 1029587
02:00−1˚e7128797 0.0 1029505
05:00−1˚e61189100 0.1 1029477
08:00−2˚ese71288100 0.2 1030460
11:00−1˚ese7118597 0.1 1030466
14:00ese6108497 0.1 1029561
17:00−1˚ese61184100 0.0 1029572
20:00−1˚ese61085100 0.0 1030451
3 december, thu
thu323:00−1˚ese6108899 0.0 1030507
02:00−1˚ese6108999 0.0 1030443
05:00−1˚ese61188100 0.1 1029417
08:00−1˚se71289100 0.1 1030492
11:00+1˚se61186100 0.1 1029510
14:00+1˚se61084100 0.1 1029550
17:00ese61186100 0.0 1029473
20:00se61089100 0.0 1029468
4 december, fri
fri423:00ese5988100 0.0 1029382
02:00ese5989100 0.0 1028425
05:00−1˚ese61089100 0.0 1028397
08:00ese51089100 0.1 1028439
11:00+1˚ese61085100 0.0 1028422
14:00+1˚ese61082100 0.0 1028500
17:00ese71182100 0.0 1028478
20:00ese7118098 0.0 1029510
5 december, sat
sat523:00−2˚ese6117884 0.0 1029390
02:00−3˚e6118156 0.0 1029351
05:00−2˚e6117925 0.0 1029360
08:00−2˚e6117756 0.0 1030359
11:00e61072100 0.0 1030378
14:00e6106989 0.0 1030412
17:00−3˚e611668 0.0 1031352
20:00−3˚ese612604 0.0 1032365